Location: Unspecified
(0.0000°N, 0.0000°E)
Time: 16:01:32
(UTC+00:00)

Envisat - Pass Details

Date: 16 September 2020
Orbit: 764 x 766 km, 98.1° (Epoch: 19 September)

Event Time Altitude Azimuth Distance (km) Brightness Sun altitude
Rises 18:26:10 0° 191° (S) 3,230 6.4 -7.9°
Reaches altitude 10° 18:28:51 10° 204° (SSW) 2,301 5.8 -8.6°
Maximum altitude 18:32:54 24° 258° (WSW) 1,533 5.6 -9.6°
Drops below altitude 10° 18:36:56 10° 311° (NW) 2,293 6.3 -10.6°
Sets 18:39:37 0° 325° (NW) 3,215 6.8 -11.2°
